Location: ???????
(55.5931°N, 39.3286°E)
Time: 01:29:47
(UTC+00:00)

Cosmos 2263 - Pass Details

Date: 14 April 2024
Orbit: 832 x 864 km, 70.9° (Epoch: 18 May)

Event Time Altitude Azimuth Distance (km) Brightness Sun altitude
Rises 01:38:12 0° 325° (NW) 3,390 7.3 -6.3°
Reaches altitude 10° 01:40:39 10° 327° (NNW) 2,454 6.6 -6.0°
Maximum altitude 01:46:17 76° 54° (NE) 865 4.5 -5.2°
Drops below altitude 10° 01:51:55 10° 140° (SE) 2,452 6.8 -4.5°
Sets 01:54:22 0° 142° (SE) 3,388 7.5 -4.2°
